Regional Weather Roundup
Issued by NWS Upton, NY

Current Version | Previous Version | Text Only | Print | Product List | Glossary On
Versions: 1 2 3 4 5 6 7 8 9 10 11 12 13 14 15 16 17 18 19 20 21 22 23 24 25 26 27
000
ASUS41 KOKX 260904
RWROKX

REGIONAL WEATHER ROUNDUP
NATIONAL WEATHER SERVICE NEW YORK NY
500 AM EDT TUE JUL 26 2016

NOTE: "FAIR" INDICATES FEW OR NO CLOUDS BELOW 12,000 FEET WITH NO
SIGNIFICANT WEATHER AND/OR OBSTRUCTIONS TO VISIBILITY.

NYZ071-072-176-178-NJZ106-104-261000-
NEW YORK CITY METRO AREA

CITY           SKY/WX    TMP DP  RH WIND       PRES   REMARKS
Central Park   CLEAR     72  68  87 CALM      29.90R
LaGuardia APRT CLEAR     76  69  79 W9        29.86S
Kennedy INTL   CLEAR     75  68  78 W13       29.88R
Newark/Liberty CLEAR     73  69  87 W7        29.87S
Bronx Bot Gard   N/A     72  66  83 W9        29.88F
Wall St Helipt SUNNY     73  70  88 W6        29.88R
Teterboro      CLEAR     72  67  84 CALM      29.87R
$$

NYZ177-179-078>081-261000-
LONG ISLAND NEW YORK

CITY           SKY/WX    TMP DP  RH WIND       PRES   REMARKS
Farmingdale    CLEAR     73  69  87 W6        29.86S
MacArthur/ISP  CLEAR     72  69  90 W9        29.84S
Shirley        CLEAR     71  69  93 NW3       29.86R
Riverhead      NOT AVBL
Westhampton    CLEAR     70  68  93 NW5       29.87R
Southhampton     N/A     72  70  94 NW6       29.81R
Bridgehampton    N/A     70  70 100 CALM      29.83S
East Hampton   FAIR      71  69  92 NW3       29.83S
Montauk          N/A     72  71  97 W6        29.85R
$$

NYZ052-065-067-261000-
HUDSON VALLEY

CITY           SKY/WX    TMP DP  RH WIND       PRES   REMARKS
White Plains   CLEAR     70  68  93 W6        29.87R
Newburgh       NOT AVBL
Montgomery     NOT AVBL
Poughkeepsie   CLEAR     72  68  87 SW6       29.85S
Albany         PTCLDY    66  64  93 CALM      29.85R
$$

NJZ001-105-106-008-010-013-015-019>022-104-261000-
NEW JERSEY

CITY           SKY/WX    TMP DP  RH WIND       PRES   REMARKS
Newark/Liberty CLEAR     73  69  87 W7        29.87S
Teterboro      CLEAR     72  67  84 CALM      29.87R
Caldwell       CLEAR     71  69  93 CALM      29.89R
Morristown     CLEAR     68  64  88 CALM      29.89R
Somerville     PTCLDY    68  67  96 CALM      29.88S FOG
Linden         FAIR      72  68  89 CALM      29.90R
Sussex         CLOUDY    68  68 100 CALM      29.91R
Abdover          N/A     66  65  96 CALM      29.92R
Trenton        CLEAR     72  69  90 W7        29.89F
Millville      PTCLDY    72  70  93 W3        29.89S
Atlantic City  CLEAR     73  70  90 NW5       29.88F
Wrightstown    MOCLDY    73  72  98 NW7       29.86F
Toms River     MOCLDY    73  72  96 W6        29.89S
Belmar         CLEAR     72  70  93 W9        29.89S
$$

PAZ047>061-062-071-261000-
EASTERN PENNSYLVANIA

CITY           SKY/WX    TMP DP  RH WIND       PRES   REMARKS
Philadelphia   MOCLDY    75  71  87 NW9       29.91S
Allentown      CLEAR     68  65  90 W5        29.92S FOG
Scranton       CLOUDY    69  68  96 SW6       29.94R FOG
$$

CTZ002-004>006-009-010-012-RIZ004-006-007-MAZ004-011-015-261000-
SOUTHERN NEW ENGLAND
 IN CT

CITY           SKY/WX    TMP DP  RH WIND       PRES   REMARKS
Bradley INTL   CLEAR     68  65  90 CALM      29.83R
Hartford       CLEAR     73  67  81 SW3       29.83R
Danbury        CLEAR     68  66  93 SW6       29.88S
Wtrbury/Oxford   N/A     68  63  83 NW5       29.87S
Bridgeport     CLEAR     72  68  87 W6        29.85R
Meriden        CLEAR     68  65  90 CALM      29.85R
New Haven      CLEAR     71  68  90 VRB3      29.85R
Chester        FAIR      68  68 100 CALM      29.85S
Groton         CLEAR     71  68  90 CALM      29.83R
Wilimantic     NOT AVBL

 IN RI

CITY           SKY/WX    TMP DP  RH WIND       PRES   REMARKS
Providence     CLEAR     72  67  84 W7        29.82R
Block Island   CLEAR     69  68  96 W12       29.84R
Westerly       CLEAR     70  67  90 W3        29.84R
 IN MA

CITY           SKY/WX    TMP DP  RH WIND       PRES   REMARKS
Boston         CLEAR     77  67  71 W9        29.78R
Worchester     CLEAR     69  65  86 W10       29.84R
Westfield      CLEAR     66  63  90 CALM      29.83R
Provincetown   CLEAR     70  68  93 W9        29.78R
Nantucket      CLEAR     71  69  93 W12       29.80R
$$

ANZ330-335-338-340-345-350-353-355-261000-
COASTAL MARINE OBSERVATIONS


STATION/POSITION TIME  SKY/WX   TEMP    WIND        PRES    VSBY  WAVE
                                AIR SEA DIR/SP/G                  HT/PER
                 (UTC)          (F)     (DEG/KT/KT) (MB)    (MI)  (FT/S)
NY HARB ENTRANCE 0750            73 72  270/ 10/ 12 1011.0          2/ 6
20S FIRE ISLAND  0750            74 73  270/ 14/ 17 1010.7          2/ 4
GREAT SOUTH BAY  0800            76 80  280/ 14/ 16   N/A
23 SSW MONTAUK P 0750            71 70  280/  8/  8 1010.7          3/ 5
15 E BARNEGAT LI 0822               75                N/A           3/ 6
HUDSON CANYON    0750            78 77              1010.7          3/ 6
KINGS POINT      0800            74 72              1011.0
EXECUTION ROCKS  0800            74     260/  6/  8   N/A
CENTRAL LI SOUND 0800            73 73  280/ 12/ 14   N/A           2/ 4
EASTERN LI SOUND 0800            69 68  250/  6/  8   N/A
ROBBINS REEF     0800            74     280/ 13/ 14 1010.7
$$


>>>>>>>>>>>>>>>>>>>>>>>>>>>> KEY <<<<<<<<<<<<<<<<<<<<<<<<<<<
>                                                          <
>     SKY/WX - Sky Condition/Present Weather               <
>     TMP    - Temperature in Fahrenheit                   <
>     DP     - Dew Point in Fahrenheit                     <
>     RH     - Relative Humidity in Percent                <
>     WIND   - Direction (from) and Speed in MPH           <
>     PRES   - Mean Sea Level Pressure (inches of Hg)      <
>     WCI    - Wind Chill Index                            <
>     VSB    - VISIBILITY IN MILES                         <
>     HX     - HEAT INDEX                                  <
>     TC     - TEMPERATURE IN CELSIUS                      <
>     VRB    - VARIABLE WIND DIRECTION                     <
>                                                          <
>>>>>>>>>>>>>>>>>>>>>>>>>>>> KEY <<<<<<<<<<<<<<<<<<<<<<<<<<<




USA.gov is the U.S. government's official web portal to all federal, state and local government web resources and services.